Emporia, KS

12:21 PM CDT on May 26, 2017 (GMT -0500)
Emporia Municipal

Weather History for KEMP - October, 2012

Change the Weather History Date:

Thursday, October 11, 2012

  Actual Average Record
Temperature  
Mean Temperature 60 °F 59 °F  
Max Temperature 77 °F 71 °F 90 °F (2015)
Min Temperature 43 °F 47 °F 39 °F (2000)
Degree Days  
Heating Degree Days 5 7  
Month to date heating degree days 130 67  
Since 1 July heating degree days 170 117  
Cooling Degree Days 0 1  
Month to date cooling degree days 2 19  
Year to date cooling degree days 1867 1392  
Growing Degree Days 9 (Base 50)    
Moisture  
Dew Point 47 °F    
Average Humidity 69    
Maximum Humidity 84    
Minimum Humidity 53    
Precipitation  
Precipitation 0.00 in 0.10 in 0.76 in (2004)
Month to date precipitation T 0.98  
Year to date precipitation 18.62 30.98  
Sea Level Pressure  
Sea Level Pressure 30.08 in    
Wind  
Wind Speed 9 mph (SSE)    
Max Wind Speed 20 mph    
Max Gust Speed 45 mph    
Visibility 10 miles    
Events      
T = Trace of Precipitation, MM = Missing Value Source: NWS Daily Summary

Daily Weather History Graph

Daily Weather History Graph

Search for Another Location

Airport or City:

Trip Planner

Search our weather history database for the weather conditions in past years. The results will help you decide how hot, cold, wet, or windy it might be!

Date:

Astronomy

Oct. 11, 2012 Rise Set
Actual Time 7:30 AM CDT 6:51 PM CDT
Civil Twilight 7:03 AM CDT 7:18 PM CDT
Nautical Twilight 6:33 AM CDT 7:48 PM CDT
Astronomical Twilight 6:02 AM CDT 8:19 PM CDT
Moon 3:13 AM CDT (10/11) 4:26 PM CDT (10/11)
Length of Visible Light 12h 14m
Length of Day
11h 21m
Waning Crescent, 18% of the Moon is Illuminated
Oct 11
Waning Crescent
Oct 15
New
Oct 21
First Quarter
Oct 29
Full
Nov 6
Last Quarter

Hourly Weather History & Observations

Time (CDT) Temp. Windchill Dew Point Humidity Pressure Visibility Wind Dir Wind Speed Gust Speed Precip Events Conditions
12:53 AM 45.0 °F 40.6 °F 34.0 °F 65% 30.14 in 10.0 mi SSE 8.1 mph - N/A   Clear
1:53 AM 45.0 °F 41.2 °F 34.0 °F 65% 30.13 in 10.0 mi SSE 6.9 mph - N/A   Partly Cloudy
2:53 AM 45.0 °F - 37.0 °F 74% 30.12 in 10.0 mi Calm Calm - N/A   Overcast
3:53 AM 48.0 °F - 36.0 °F 63% 30.11 in 10.0 mi SSE 5.8 mph - N/A   Overcast
4:53 AM 50.0 °F - 37.0 °F 61% 30.09 in 10.0 mi South 6.9 mph - N/A   Overcast
5:53 AM 51.1 °F - 37.0 °F 59% 30.08 in 10.0 mi South 5.8 mph - N/A   Overcast
6:53 AM 50.0 °F - 37.0 °F 61% 30.08 in 10.0 mi South 10.4 mph - N/A   Mostly Cloudy
7:53 AM 52.0 °F - 37.9 °F 59% 30.08 in 10.0 mi South 13.8 mph - N/A   Scattered Clouds
8:53 AM 55.9 °F - 42.1 °F 60% 30.10 in 10.0 mi South 11.5 mph - N/A   Partly Cloudy
9:53 AM 59.0 °F - 44.1 °F 58% 30.09 in 10.0 mi South 11.5 mph 18.4 mph N/A   Overcast
10:11 AM 60.8 °F - 46.4 °F 59% 30.09 in 10.0 mi South 15.0 mph - N/A   Overcast
10:53 AM 64.0 °F - 48.9 °F 58% 30.08 in 10.0 mi South 15.0 mph 23.0 mph N/A   Scattered Clouds
11:53 AM 69.1 °F - 53.1 °F 57% 30.07 in 10.0 mi SSW 11.5 mph - N/A   Clear
12:53 PM 73.0 °F - 55.0 °F 53% 30.04 in 10.0 mi SSE 9.2 mph - N/A   Mostly Cloudy
1:53 PM 73.9 °F - 57.0 °F 55% 30.01 in 10.0 mi South 13.8 mph - N/A   Overcast
3:53 PM 73.9 °F - 59.0 °F 59% 29.99 in 10.0 mi SSE 12.7 mph - N/A   Overcast
5:53 PM 73.0 °F - 60.1 °F 64% 30.00 in 10.0 mi SSE 8.1 mph - N/A   Overcast
6:53 PM 69.1 °F - 59.0 °F 70% 30.02 in 10.0 mi SE 8.1 mph - N/A   Partly Cloudy
8:53 PM 66.0 °F - 57.9 °F 75% 30.08 in 10.0 mi East 5.8 mph - N/A   Overcast
9:53 PM 66.0 °F - 57.9 °F 75% 30.11 in 10.0 mi ENE 8.1 mph - N/A   Overcast
10:53 PM 64.0 °F - 57.0 °F 78% 30.13 in 10.0 mi ENE 9.2 mph - N/A   Overcast
11:53 PM 63.0 °F - 57.0 °F 81% 30.14 in 10.0 mi ENE 9.2 mph - N/A   Mostly Cloudy